Home   Weather   Achern   Past weeks

Flag for Germany Past Weather in Achern, Baden-Württemberg, Germany — Yesterday and Last 2 Weeks

Now
52 °F

Partly sunny.


Feels Like: 47 °F
Forecast: 45 / 54 °F
Wind: 16 mph from Southwest

Location: Karlsruhe - Baden Wurttemberg

Current Time: Feb 22, 2017 at 5:12:54 pm

Latest Report: Feb 22, 2017 at 4:20 pm


Visibility: N/A

Pressure: 29.98 "Hg

Humidity: 72%

Dew Point: 43 °F

Location of AchernLocation

Past Weather in Achern — Graph

°F

Achern Temperature Yesterday

Maximum temperature yesterday: 54 °F (at 1:20 pm)
Minimum temperature yesterday: 48 °F (at 4:50 am)
Average temperature yesterday: 50 °F

High & Low Weather Summary for the Past Weeks

 TemperatureHumidityPressure
High61 °F (Feb 16, 3:20 pm)100% (Feb 7, 7:20 pm)30.60 "Hg (Feb 7, 7:20 pm)
Low23 °F (Feb 14, 6:50 am)51% (Feb 16, 2:20 pm)29.95 "Hg (Feb 22, 3:20 pm)
Average41 °F84%30.24 "Hg
* Reported Feb 7 3:20 pm — Feb 22 3:50 pm, Achern, Weather by CustomWeather, © 2017

Note: Actual official high and low records may vary slightly from our data, if they occured in-between our weather recording intervals... More about our weather records

Advertising

Achern Weather History for the Previous 24 Hours

Scroll right to see more
 ConditionsComfort  
Time TempWeatherWind HumidityBarometerVisibility
3:50 pm
Wed, Feb 22
52 °FPartly sunny.16 mph72%29.95 "HgN/A
3:20 pm52 °FPartly sunny.20 mph72%29.95 "HgN/A
2:50 pm52 °FPartly sunny.17 mph72%29.98 "HgN/A
2:20 pm52 °FPartly sunny.20 mph72%29.98 "HgN/A
1:50 pm52 °FPartly sunny.20 mph72%29.98 "HgN/A
1:20 pm52 °FScattered showers. Partly sunny.20 mph72%29.98 "HgN/A
12:50 pm52 °FLight rain. Broken clouds.18 mph72%29.98 "HgN/A
12:20 pm52 °FScattered showers. Partly sunny.17 mph72%30.01 "HgN/A
11:50 am54 °FScattered showers. Broken clouds.16 mph72%30.01 "HgN/A
11:20 am52 °FScattered showers. Partly sunny.18 mph72%30.01 "HgN/A
10:50 am52 °FBroken clouds.17 mph72%30.01 "HgN/A
10:20 am52 °FScattered showers. Partly sunny.14 mph77%30.01 "HgN/A
9:50 am52 °FPartly sunny.15 mph77%30.01 "HgN/A
9:20 am52 °FScattered showers. Partly sunny.17 mph77%29.98 "HgN/A
8:50 am52 °FBroken clouds.16 mph77%29.98 "HgN/A
8:20 am52 °FPartly sunny.15 mph77%29.98 "HgN/A
7:50 am52 °FLight rain. Partly sunny.14 mph82%29.98 "Hg6 mi
7:20 am52 °FPassing clouds.13 mph82%29.98 "HgN/A
6:50 am50 °FPassing clouds.13 mph88%29.98 "HgN/A
6:20 am50 °FPassing clouds.14 mph94%29.98 "HgN/A
5:50 am50 °FPassing clouds.14 mph94%29.98 "HgN/A
5:20 am50 °FPassing clouds.14 mph94%30.01 "HgN/A
4:50 am50 °FPassing clouds.14 mph94%30.01 "HgN/A
1:20 am50 °FLight rain. Passing clouds.10 mph94%30.04 "Hg6 mi
12:20 am50 °FOvercast.10 mph94%30.07 "HgN/A
11:50 pm
Tue, Feb 21
50 °FOvercast.12 mph94%30.07 "HgN/A
11:20 pm50 °FPassing clouds.8 mph94%30.07 "HgN/A
10:50 pm52 °FPassing clouds.9 mph88%30.07 "HgN/A
10:20 pm50 °FPassing clouds.7 mph94%30.07 "HgN/A
9:50 pm50 °FPassing clouds.9 mph94%30.07 "HgN/A
9:20 pm52 °FPassing clouds.8 mph88%30.07 "HgN/A
8:50 pm52 °FPassing clouds.8 mph88%30.09 "HgN/A
8:20 pm50 °FLight rain. Partly cloudy.5 mph100%30.09 "Hg5 mi
7:50 pm50 °FLight rain. Partly cloudy.7 mph100%30.09 "Hg5 mi
7:20 pm50 °FRain. Partly cloudy.7 mph100%30.09 "Hg4 mi
6:56 pm52 °FLight rain. Passing clouds.8 mph88%30.09 "Hg5 mi
6:50 pm52 °FPassing clouds.7 mph88%30.09 "HgN/A
6:20 pm52 °FPassing clouds.7 mph88%30.09 "HgN/A
5:50 pm54 °FPartly sunny.10 mph82%30.07 "HgN/A
5:20 pm54 °FPartly sunny.9 mph88%30.07 "HgN/A
Weather by CustomWeather, © 2017

See weather overviewHow to use our weather pages